Regional Weather Roundup
Issued by NWS

Home | Current Version | Previous Version | Graphics & Text | Print | Product List | Glossary On
Versions: 1 2 3 4 5 6 7 8 9 10 11 12 13 14 15 16 17 18 19 20 21 22 23 24 25 26 27 28 29 30 31 32 33 34 35 36 37 38 39 40 41 42 43 44 45 46 47 48 49 50
000
ASUS45 KPSR 190710
RWRAZ

ARIZONA HOURLY REGIONAL WEATHER ROUNDUP
NATIONAL WEATHER SERVICE PHOENIX AZ
1200 AM MST FRI JAN 19 2018

NOTE: FAIR INDICATES FEW OR NO CLOUDS BELOW 12,000 FEET WITH NO
SIGNIFICANT WEATHER AND/OR OBSTRUCTIONS TO VISIBILITY.

AZZ001>003-036-190800-
NORTHWEST ARIZONA

CITY           SKY/WX    TMP DP  RH WIND       PRES   REMARKS
BULLHEAD CITY  PTCLDY    55  34  44 SE5       30.03S
KINGMAN        PTCLDY    50  27  40 E6        30.10F
$$

AZZ004>008-015-016-018-190800-
NORTH CENTRAL ARIZONA

CITY           SKY/WX    TMP DP  RH WIND       PRES   REMARKS
GRAND CANYON   PTCLDY    25  18  74 CALM      30.19F
WILLIAMS       PTCLDY    32  18  55 S13       30.17F WCI  22
PRESCOTT       PTCLDY    37  24  59 S3        30.16F
FLAGSTAFF      MOCLDY    26  17  68 SW3       30.21F
PAYSON         MOCLDY    39  18  41 CALM      30.18F
PAGE           MOCLDY    38  25  59 SW3       30.14R
$$

AZZ009>014-017-190800-
NORTHEAST ARIZONA

CITY           SKY/WX    TMP DP  RH WIND       PRES   REMARKS
WINSLOW        MOCLDY    28  10  46 CALM      30.18F
SAINT JOHNS    MOCLDY    29  18  63 S6        30.19F WCI  23
WINDOW ROCK    MOCLDY    23  14  68 CALM      30.22F
SHOW LOW       MOCLDY    32  21  64 SW7       30.22S WCI  26
$$

AZZ540-542>544-546-548-190800-
GREATER PHOENIX AREA

CITY           SKY/WX    TMP DP  RH WIND       PRES   REMARKS
PHOENIX        MOCLDY    58  32  37 SE5       30.05S
BUCKEYE        PTCLDY    48  30  49 N5        30.05F
LUKE AFB       PTCLDY    49  37  62 N7        30.04S
DEER VALLEY    PTCLDY    56  28  34 NE6       30.05F
SCOTTSDALE     MOCLDY    53  34  48 CALM      30.06F
MESA-GATEWAY   PTCLDY    52  28  40 SE6       30.07S
$$

AZZ539-553-190800-
SOUTHWEST MARICOPA COUNTY AND PINAL COUNTY

CITY           SKY/WX    TMP DP  RH WIND       PRES   REMARKS
CASA GRANDE    NOT AVBL
GILA BEND      FAIR      52  27  38 SE7       30.03S
$$

AZZ503-504-507>509-190800-
SOUTHEAST ARIZONA

CITY           SKY/WX    TMP DP  RH WIND       PRES   REMARKS
TUCSON         MOCLDY    50  22  33 SE8       30.12R
DAVIS-MONTHAN  MOCLDY    52  17  25 SE6       30.10R
NOGALES        CLEAR     42  19  39 E9        30.14F
SIERRA VISTA   CLEAR     46  16  31 SW7       30.17F
DOUGLAS        CLEAR     34  17  50 CALM      30.17S
SAFFORD        CLEAR     36  16  44 N3        30.15S
$$

AZZ532-190800-
SOUTHWEST ARIZONA

CITY           SKY/WX    TMP DP  RH WIND       PRES   REMARKS
YUMA           CLEAR     57  34  41 N3        30.00F
$$

CAZ041-043-047-048-061-525>527-560>570-190800-
SOUTHERN CALIFORNIA

CITY           SKY/WX    TMP DP  RH WIND       PRES   REMARKS
DOWNTOWN L.A.  CLEAR     59  57  93 CALM      30.04S FOG
L.A. AIRPORT   PTCLDY    61  56  83 CALM      30.04S
SAN DIEGO      PTCLDY    60  56  86 SE5       30.06S FOG
BURBANK        CLEAR     60  50  69 E3        30.04S
ONTARIO        PTCLDY    59  45  59 CALM      30.04F
RIVERSIDE      CLEAR     58  45  62 SW3       30.05S
PALM SPRINGS   CLEAR     60  42  51 NW5       30.03F
EL CENTRO NAS  CLEAR     54  35  48 W3        30.02S
IMPERIAL       CLEAR     55  38  52 W3        30.00S
BLYTHE         CLEAR     53  33  46 N7        30.02S
NEEDLES        PTCLDY    58  33  39 W6        30.03F
$$

NVZ020-UTZ003-190800-
SOUTHERN NEVADA-UTAH

CITY           SKY/WX    TMP DP  RH WIND       PRES   REMARKS
LAS VEGAS      MOCLDY    53  42  66 CALM      30.01F
SALT LAKE CITY CLOUDY    55  28  35 S21G30    29.88F
$$

NMZ009-TXZ055-190800-
NEW MEXICO-WEST TEXAS

CITY           SKY/WX    TMP DP  RH WIND       PRES   REMARKS
ALBUQUERQUE    MOCLDY    31   9  39 SE6       30.19F WCI  25
EL PASO        PTCLDY    36  18  48 CALM      30.18F
$$


........................KEY........................
SKY/WX - SKY CONDITION/WEATHER
TMP    - TEMPERATURE IN FAHRENHEIT
DP     - DEW POINT IN FAHRENHEIT
RH     - RELATIVE HUMIDITY IN PERCENT
WIND   - DIRECTION AND SPEED IN MILES PER HOUR (MPH)
VRB    - VARIABLE WIND DIRECTION
PRES   - MEAN SEA LEVEL PRESSURE IN INCHES OF MERCURY
         F - FALLING PRESSURE   R - RISING PRESSURE
         S - STEADY PRESSURE
VSB    - VISIBILITY IN MILES
HX     - HEAT INDEX IN FAHRENHEIT
WCI    - WIND CHILL INDEX IN FAHRENHEIT
TC     - TEMPERATURE IN CELSIUS WHICH IS ALSO KNOWN AS
         TEMPERATURE IN CENTIGRADE
AFB    - AIR FORCE BASE
         LUKE AFB IS LUKE AIR FORCE BASE
         DAVIS-MONTHAN IS DAVIS-MONTHAN AIR FORCE BASE
NAS    - NAVAL AIR STATION
         EL CENTRO NAS IS EL CENTRO NAVAL AIR STATION
N/A    - NOT AVAILABLE




USA.gov is the U.S. government's official web portal to all federal, state and local government web resources and services.